TimePST,TemperatureF,Dew PointF,Humidity,Sea Level PressureIn,VisibilityMPH,Wind Direction,Wind SpeedMPH,Gust SpeedMPH,PrecipitationIn,Events,Conditions,WindDirDegrees,DateUTC
12:15 AM,32.0,30.9,96,30.23,7.0,SSW,3.5,-,N/A,,Overcast,200,2013-12-20 08:15:00
12:24 AM,33.1,30.9,92,30.24,7.0,SSW,3.5,-,N/A,,Overcast,210,2013-12-20 08:24:00
12:56 AM,33.1,30.9,92,30.24,7.0,SSE,4.6,-,N/A,,Overcast,150,2013-12-20 08:56:00
1:56 AM,32.0,30.9,96,30.21,8.0,SSE,6.9,-,N/A,,Overcast,150,2013-12-20 09:56:00
2:56 AM,32.0,30.9,96,30.19,6.0,SSE,5.8,-,N/A,,Overcast,160,2013-12-20 10:56:00
3:31 AM,32.0,30.9,96,30.18,7.0,SE,3.5,-,N/A,,Overcast,130,2013-12-20 11:31:00
3:49 AM,33.1,30.9,92,30.18,7.0,Variable,4.6,-,N/A,,Overcast,0,2013-12-20 11:49:00
3:56 AM,33.1,30.9,92,30.18,7.0,South,6.9,-,N/A,,Overcast,170,2013-12-20 11:56:00
4:56 AM,34.0,30.9,89,30.15,10.0,South,6.9,-,N/A,,Overcast,170,2013-12-20 12:56:00
5:56 AM,34.0,30.9,89,30.14,9.0,South,10.4,-,N/A,,Overcast,180,2013-12-20 13:56:00
6:56 AM,34.0,30.9,89,30.15,10.0,South,5.8,-,N/A,,Overcast,170,2013-12-20 14:56:00
7:56 AM,34.0,30.9,89,30.09,9.0,SSE,10.4,-,0.01,Rain,Light Rain,160,2013-12-20 15:56:00
8:56 AM,35.1,32.0,89,30.12,10.0,South,10.4,-,0.00,,Overcast,190,2013-12-20 16:56:00
9:56 AM,36.0,33.1,89,30.13,10.0,South,12.7,-,0.01,,Overcast,180,2013-12-20 17:56:00
10:56 AM,37.0,33.1,86,30.08,10.0,South,19.6,27.6,0.00,Rain,Light Rain,170,2013-12-20 18:56:00
11:24 AM,37.9,33.1,83,30.05,10.0,South,16.1,-,0.00,,Overcast,170,2013-12-20 19:24:00
11:56 AM,37.9,33.1,83,30.05,10.0,South,17.3,-,0.00,,Overcast,180,2013-12-20 19:56:00
12:56 PM,39.9,34.0,79,30.00,10.0,South,19.6,28.8,N/A,,Overcast,180,2013-12-20 20:56:00
1:56 PM,39.9,35.1,83,29.94,10.0,South,28.8,35.7,0.01,,Overcast,180,2013-12-20 21:56:00
2:56 PM,41.0,36.0,82,29.96,6.0,South,17.3,23.0,0.01,Rain,Light Rain,190,2013-12-20 22:56:00
3:39 PM,39.9,37.0,89,29.94,6.0,South,18.4,23.0,0.03,Rain,Light Rain,170,2013-12-20 23:39:00
3:56 PM,41.0,37.9,89,29.95,10.0,South,18.4,-,0.04,Rain,Light Rain,170,2013-12-20 23:56:00
4:56 PM,41.0,39.0,93,29.94,10.0,South,18.4,29.9,0.00,,Overcast,180,2013-12-21 00:56:00
5:37 PM,42.1,39.9,92,29.92,10.0,South,19.6,-,N/A,,Overcast,180,2013-12-21 01:37:00
5:56 PM,42.1,39.9,92,29.93,10.0,South,21.9,28.8,N/A,,Overcast,180,2013-12-21 01:56:00
6:07 PM,43.0,39.9,89,29.93,10.0,South,16.1,24.2,N/A,,Overcast,180,2013-12-21 02:07:00
6:56 PM,43.0,41.0,93,29.94,10.0,South,13.8,-,N/A,,Overcast,170,2013-12-21 02:56:00
8:54 PM,44.6,42.8,93,29.95,10.0,SSW,6.9,-,N/A,,Overcast,200,2013-12-21 04:54:00
8:56 PM,45.0,42.1,90,29.95,10.0,South,8.1,-,N/A,,Overcast,190,2013-12-21 04:56:00
9:15 PM,45.0,43.0,93,29.95,10.0,South,9.2,-,N/A,,Overcast,170,2013-12-21 05:15:00
9:56 PM,45.0,43.0,93,29.95,10.0,South,12.7,-,0.00,,Overcast,180,2013-12-21 05:56:00
10:36 PM,45.0,43.0,93,29.96,10.0,South,9.2,-,N/A,,Overcast,180,2013-12-21 06:36:00
10:56 PM,45.0,44.1,97,29.97,9.0,South,8.1,-,N/A,,Overcast,170,2013-12-21 06:56:00
11:54 PM,46.4,44.6,93,29.96,10.0,SSW,8.1,-,N/A,,Overcast,200,2013-12-21 07:54:00
11:56 PM,46.9,44.1,90,29.97,10.0,SSW,9.2,-,N/A,,Overcast,200,2013-12-21 07:56:00